China Weather Xiangyuan today hourly
Home / China / Xiangyuan / Xiangyuan Hour By Hour Weather - 24hr View

48 Hour View

Time Temp. Wind Dir. Humidity Wind Spd. Precip.
2020-07-21 19:00pm 24°C S 69% 5km/h 55%
2020-07-21 20:00pm 22°C W 77% 10km/h 55%
2020-07-21 21:00pm 21°C W 80% 9km/h 47%
2020-07-21 22:00pm 21°C W 83% 2km/h 51%
2020-07-21 23:00pm 21°C W 87% 6km/h 47%
2020-07-22 00:00pm 21°C W 88% 10km/h 34%
2020-07-22 01:00pm 20°C W 90% 3km/h 14%
2020-07-22 02:00pm 20°C W 91% 9km/h 14%
2020-07-22 03:00pm 20°C W 91% 4km/h 14%
2020-07-22 04:00pm 19°C W 90% 7km/h 14%
2020-07-22 05:00pm 19°C W 89% 5km/h 14%
2020-07-22 06:00pm 19°C W 89% 6km/h 10%
2020-07-22 07:00pm 20°C W 89% 7km/h 2%
2020-07-22 08:00pm 20°C W 89% 8km/h 2%
2020-07-22 09:00pm 20°C SW 87% 10km/h 2%
2020-07-22 10:00pm 20°C SE 86% 1km/h 2%
2020-07-22 11:00pm 20°C E 85% 1km/h 2%
2020-07-22 12:00pm 20°C E 84% 11km/h 4%
2020-07-22 13:00pm 21°C E 83% 6km/h 7%
2020-07-22 14:00pm 21°C E 82% 10km/h 7%
2020-07-22 15:00pm 21°C E 81% 2km/h 7%
2020-07-22 16:00pm 22°C E 80% 6km/h 7%
2020-07-22 17:00pm 22°C E 79% 10km/h 7%
2020-07-22 18:00pm 22°C E 79% 4km/h 7%

More Local Information

Hourly Weather Nearby

Bookmark and Share

Become A Member